Hourly Weather Roundup
Issued by NWS Central Illinois

Home | Current Version | Previous Version | Text Only | Print | Product List | Glossary On
Versions: 1 2 3 4 5 6 7 8 9 10 11 12 13 14 15 16 17 18 19 20 21 22 23 24 25 26 27 28 29 30 31 32 33 34 35 36 37 38 39 40 41 42 43 44 45 46 47 48 49 50
593
NZUS43 KILX 040710
HWRILX

AREA WEATHER ROUNDUP
NATIONAL WEATHER SERVICE, LINCOLN IL
200 AM CDT WED MAY 04 2016


CITY           SKY/WX    TMP DP  RH WIND       PRES   REMARKS
BLOOMINGTON    MOCLDY    54  47  77 SW17      29.70F
CHAMPAIGN      CLOUDY    53  45  74 SW15      29.73F
DANVILLE       CLOUDY    54  44  68 SW13G18   29.70F
DECATUR        CLOUDY    56  43  61 SW15      29.74F
EFFINGHAM      MOCLDY    52  47  81 S7        29.81F
FLORA          MOCLDY    52  46  77 SW8       29.83F
GALESBURG      TSTM      53  48  84 NW12      29.72R
JACKSONVILLE   CLOUDY    55  44  66 SW13      29.75F
LACON          HVY RAIN  53  48  84 W12G26    29.71R
LAWRENCEVILLE  PTCLDY    52  45  77 SW8       29.82F
LITCHFIELD     MOCLDY    52  43  71 SW13      29.79F
$$


CITY           SKY/WX    TMP DP  RH WIND       PRES   REMARKS
LINCOLN        CLOUDY    57  46  67 SW8       29.71F
MACOMB         CLOUDY    57  45  63 SW16G23   29.71F THUNDER
MATTOON        CLOUDY    53  42  66 SW10      29.76F
MT CARMEL AP   CLEAR     52  45  76 SW9       29.82F
OLNEY-NOBLE AP CLOUDY    52  45  76 SW5       29.82F
PARIS          PTCLDY    51  46  83 SW7       29.76F
PEORIA         CLOUDY    57  43  59 SW13      29.68F
PONTIAC        CLOUDY    56  47  72 SW16G22   29.66F
RANTOUL        CLOUDY    55  47  74 SW15      29.71F
ROBINSON       PTCLDY    51  44  76 SW9       29.81F
SPRINGFIELD    CLOUDY    57  44  62 SW12      29.74F
TAYLORVILLE    CLOUDY    55  44  67 SW15      29.76F
$$

...REGIONAL REPORTS...


CITY           SKY/WX    TMP DP  RH WIND       PRES   REMARKS
CHICAGO O`HARE LGT RAIN  51  47  86 NW9       29.66R
KANKAKEE       CLOUDY    54  44  67 SW20G26   29.67F
MOLINE         LGT RAIN  51  47  86 SE9       29.67F
MOUNT STERLING CLOUDY    56  43  60 SW12      29.73F
MOUNT VERNON   MOCLDY    48  43  81 S3        29.85F
PITTSFIELD     MOCLDY    56  44  64 SW9       29.77F
QUINCY         CLOUDY    56  43  61 SW13      29.74F
ROCKFORD       CLOUDY    49  45  86 CALM      29.67F
$$


CITY           SKY/WX    TMP DP  RH WIND       PRES   REMARKS
BURLINGTON     CLOUDY    57  46  66 W12       29.68F
CEDAR RAPIDS   CLEAR     50  47  89 E6        29.69R
DES MOINES     PTCLDY    59  36  42 NW14      29.78R
KIRKSVILLE     CLOUDY    59  41  51 W10       29.76F
OTTUMWA        MOCLDY    56  45  66 W15       29.71S
ST LOUIS       PTCLDY    55  42  61 SW13      29.82F
$$


CITY           SKY/WX    TMP DP  RH WIND       PRES   REMARKS
TERRE HAUTE    CLEAR     52  44  74 SW8       29.78F
EVANSVILLE     CLEAR     50  43  77 SW5       29.85F
INDIANAPOLIS   CLOUDY    52  44  74 SW8       29.75F
LAFAYETTE      CLOUDY    53  45  74 SW8       29.72F
MADISON        PTCLDY    45  43  93 NW6       29.68S
MILWAUKEE      CLOUDY    48  46  93 N9        29.65R
$$






USA.gov is the U.S. government's official web portal to all federal, state and local government web resources and services.